Weather in Educhanka

Russia / Irkutsk Oblast     57°21′56″N   102°09′20″E
temp.,
°C
wind,
m/s
gust,
m/s
humid.,
%
clouds,
%
prec.,
mm/h
press.,
hPa
HPBL,
m
19 may, wed
wed1923:00+1nne224628 0.0 100524
02:00−1nne11490 0.0 100610
05:00−3nnw11545 0.0 100811
08:00+3n24328 0.0 1008513
11:00+7n34255 0.0 10071944
14:00+9nnw332225 0.0 10052350
17:00+10nne332295 0.0 10042421
20:00+7ne3732100 0.0 1004400
20 may, thu
thu2023:00+2ne2644100 0.0 1006126
02:000ene2451100 0.0 100776
05:000ene2260100 0.0 100769
08:00+4e2447100 0.0 1008457
11:00+8ene333499 0.0 10081765
14:00+11ene33275 0.0 10082167
17:00+12ene4425100 0.0 10062381
20:00+10ene3732100 0.0 1007581
21 may, fri
fri2123:00+4ne21048100 0.0 1009217
02:00+2ne2554100 0.0 1010100
05:00+1ne2753100 0.0 1009175
08:00+6ne51134100 0.0 10101072
11:00+9ne71024100 0.0 10081553
14:00+12nne71021100 0.0 10072032
17:00+12nne51026100 0.0 10082283
20:00+10n4932100 0.0 1009774
22 may, sat
sat2223:00+6nnw3746100 0.0 1011153
02:00+5nnw3956100 0.0 1012315
05:00+3nw3766100 0.0 1013215
08:00+7nnw41053100 0.0 1014681
11:00+11nnw5733100 0.0 10122886
14:00+11nnw5734100 0.0 10122291
17:00+12n483798 0.1 10122316
20:00+8n146475 0.7 1015489
23 may, sun
sun2323:00+3wnw228368 0.3 101613
02:00+2wnw218531 0.4 101611
05:00+1wsw2185100 0.0 101717
08:00+6wnw2365100 0.0 1016304
11:00+9nnw3445100 0.0 10151531
14:00+11nnw4641100 0.3 10152223
17:00+11nnw455074 1.0 10151788
20:00+9nw35575 1.4 1015457